Date,Installs,Update checks
2020-03-02,66,7
2020-03-03,328,80
2020-03-04,302,191
2020-03-05,357,269
2020-03-06,365,366
2020-03-07,352,476
2020-03-08,343,513
2020-03-09,366,717
2020-03-10,386,820
2020-03-11,374,893
2020-03-12,366,1065
2020-03-13,388,1082
2020-03-14,350,1076
2020-03-15,360,1075
2020-03-16,503,1429
2020-03-17,535,1550
2020-03-18,558,1773
2020-03-19,447,1891
2020-03-20,516,1972
2020-03-21,473,1972
2020-03-22,471,1984
2020-03-23,437,2547
2020-03-24,408,2481
2020-03-25,386,2595
2020-03-26,440,2657
2020-03-27,475,2792
2020-03-28,462,2525
2020-03-29,437,2693
2020-03-30,484,3169
2020-03-31,437,3142
2020-04-01,370,3214
2020-04-02,352,3304
2020-04-03,317,3239
2020-04-04,332,2819
2020-04-05,342,2920
2020-04-06,323,3088
2020-04-07,333,3704
2020-04-08,294,3577
2020-04-09,311,3680
2020-04-10,265,3673
2020-04-11,278,3384
2020-04-12,273,3322
2020-04-13,295,3806
2020-04-14,317,3900
2020-04-15,295,3986
2020-04-16,302,4022
2020-04-17,328,3893
2020-04-18,310,3530
2020-04-19,329,3548
2020-04-20,279,4248
2020-04-21,307,4154
2020-04-22,305,4217
2020-04-23,250,4199
2020-04-24,270,4185
2020-04-25,209,3740
2020-04-26,212,4258
2020-04-27,233,4326
2020-04-28,225,4240
2020-04-29,254,4325
2020-04-30,244,4308
2020-05-01,198,3426
2020-05-02,202,3410
2020-05-03,204,3401
2020-05-04,197,3707
2020-05-05,205,3942
2020-05-06,217,4546
2020-05-07,219,4546
2020-05-08,175,4439
2020-05-09,188,4488
2020-05-10,178,3803
2020-05-11,239,4608
2020-05-12,191,4517
2020-05-13,213,4502
2020-05-14,232,4584
2020-05-15,216,4678
2020-05-16,222,4059
2020-05-17,192,3998
2020-05-18,222,4742
2020-05-19,182,4634
2020-05-20,179,4576
2020-05-21,208,4651
2020-05-22,180,4631
2020-05-23,183,4110
2020-05-24,235,4044
2020-05-25,220,4896
2020-05-26,185,4701
2020-05-27,202,4807
2020-05-28,186,4800
2020-05-29,208,4845
2020-05-30,213,4222
2020-05-31,227,4291
2020-06-01,239,5017
2020-06-02,204,4900
2020-06-03,197,4899
2020-06-04,163,4971
2020-06-05,195,4909
2020-06-06,187,4276
2020-06-07,148,4193
2020-06-08,188,5100
2020-06-09,186,5038
2020-06-10,171,5034
2020-06-11,178,5001
2020-06-12,178,4943
2020-06-13,200,4491
2020-06-14,188,4452
2020-06-15,211,5259
2020-06-16,203,5175
2020-06-17,224,5272
2020-06-18,244,5137
2020-06-19,160,5093
2020-06-20,186,4557
2020-06-21,142,4366
2020-06-22,182,5420
2020-06-23,157,5171
2020-06-24,149,5072
2020-06-25,124,4067
2020-06-26,134,4205
2020-06-27,193,4455
2020-06-28,194,5348
2020-06-29,191,5313
2020-06-30,173,5292
2020-07-01,183,5214
2020-07-02,150,5203
2020-07-03,166,5299
2020-07-04,164,4667
2020-07-05,150,4513
2020-07-06,163,5494
2020-07-07,142,5207
2020-07-08,146,5274
2020-07-09,182,5215
2020-07-10,225,5283
2020-07-11,223,4629
2020-07-12,178,4579
2020-07-13,154,5576
2020-07-14,204,5337
2020-07-15,199,5487
2020-07-16,203,5413
2020-07-17,192,5424
2020-07-18,186,4711
2020-07-19,203,4647
2020-07-20,193,5769
2020-07-21,196,5581
2020-07-22,200,5551
2020-07-23,164,5665
2020-07-24,149,5570
2020-07-25,176,4849
2020-07-26,157,4781
2020-07-27,186,5875
2020-07-28,196,5670
2020-07-29,204,5751
2020-07-30,212,5638
2020-07-31,182,5727
2020-08-01,154,4997
2020-08-02,172,4859
2020-08-03,208,6157
2020-08-04,213,5833
2020-08-05,210,5963
2020-08-06,197,5790
2020-08-07,199,5836
2020-08-08,212,4970
2020-08-09,197,4958
2020-08-10,182,6248
2020-08-11,211,6034
2020-08-12,177,5994
2020-08-13,162,5940
2020-08-14,164,5963
2020-08-15,150,5143
2020-08-16,147,4986
2020-08-17,138,6218
2020-08-18,152,6055
2020-08-19,179,6158
2020-08-20,180,6144
2020-08-21,167,6102
2020-08-22,158,5221
2020-08-23,146,5184
2020-08-24,194,6438
2020-08-25,142,6196
2020-08-26,175,6312
2020-08-27,175,6166
2020-08-28,180,6092
2020-08-29,184,5294
2020-08-30,171,5237
2020-08-31,176,6481
2020-09-01,163,6248
2020-09-02,179,6238
2020-09-03,161,6172
2020-09-04,138,6226
2020-09-05,159,5311
2020-09-06,162,5312
2020-09-07,198,6505
2020-09-08,224,6271
2020-09-09,218,6423
2020-09-10,202,6316
2020-09-11,170,6345
2020-09-12,176,5515
2020-09-13,196,5419
2020-09-14,176,6720
2020-09-15,157,6447
2020-09-16,170,6350
2020-09-17,148,6392
2020-09-18,143,6399
2020-09-19,127,5502
2020-09-20,162,5361
2020-09-21,177,6778
2020-09-22,141,6548
2020-09-23,161,6513
2020-09-24,178,6604
2020-09-25,166,6522
2020-09-26,232,5677
2020-09-27,234,6668
2020-09-28,212,6305
2020-09-29,153,6507
2020-09-30,196,6026
2020-10-01,169,4341
2020-10-02,151,4486
2020-10-03,190,4587
2020-10-04,188,4742
2020-10-05,210,4932
2020-10-06,296,5012
2020-10-07,355,5499
2020-10-08,311,5933
2020-10-09,313,7187
2020-10-10,283,6882
2020-10-11,287,5962
2020-10-12,210,7289
2020-10-13,269,7010
2020-10-14,286,7115
2020-10-15,312,7084
2020-10-16,266,7178
2020-10-17,301,6166
2020-10-18,260,6037
2020-10-19,258,7631
2020-10-20,328,7288
2020-10-21,308,7360
2020-10-22,310,7397
2020-10-23,257,7453
2020-10-24,224,6435
2020-10-25,246,6389
2020-10-26,259,7823
2020-10-27,249,7586
2020-10-28,259,7593
2020-10-29,274,7573
2020-10-30,239,7627
2020-10-31,310,6804
2020-11-01,347,6564
2020-11-02,347,8255
2020-11-03,322,7829
2020-11-04,312,7973
2020-11-05,295,8018
2020-11-06,297,8054
2020-11-07,309,6946
2020-11-08,335,6681
2020-11-09,316,8534
2020-11-10,513,8507
2020-11-11,450,8296
2020-11-12,302,8244
2020-11-13,242,8360
2020-11-14,275,7213
2020-11-15,255,7350
2020-11-16,261,9177
2020-11-17,268,8619
2020-11-18,249,8508
2020-11-19,222,8724
2020-11-20,218,8730
2020-11-21,198,7660
2020-11-22,203,7421
2020-11-23,205,9234
2020-11-24,204,8893
2020-11-25,192,8719
2020-11-26,175,8846
2020-11-27,193,8754
2020-11-28,208,7495
2020-11-29,175,7441
2020-11-30,198,9253
2020-12-01,183,8955
2020-12-02,204,8839
2020-12-03,181,8919
2020-12-04,210,8721
2020-12-05,176,7580
2020-12-06,172,7460
2020-12-07,193,9406
2020-12-08,154,8962
2020-12-09,181,9173
2020-12-10,183,8915
2020-12-11,208,8989
2020-12-12,233,7789
2020-12-13,177,7483
2020-12-14,165,9549
2020-12-15,194,9110
2020-12-16,217,8989
2020-12-17,154,9082
2020-12-18,163,9070
2020-12-19,186,7759
2020-12-20,148,7499
2020-12-21,147,9389
2020-12-22,258,9050
2020-12-23,278,9063
2020-12-24,195,9110
2020-12-25,173,8935
2020-12-26,178,7668
2020-12-27,195,7715
2020-12-28,165,9606
2020-12-29,159,9209
2020-12-30,163,9053
2020-12-31,161,8791
2021-01-01,150,6844
2021-01-02,179,7225
2021-01-03,159,7710
2021-01-04,161,9775
2021-01-05,166,9345
2021-01-06,157,9262
2021-01-07,171,9299
2021-01-08,174,8830
2021-01-09,195,7752
2021-01-10,170,7512
2021-01-11,160,9352
2021-01-12,217,8937
2021-01-13,212,9070
2021-01-14,183,8946
2021-01-15,221,9046
2021-01-16,217,7904
2021-01-17,202,7400
2021-01-18,194,9615
2021-01-19,166,9249
2021-01-20,173,9322
2021-01-21,163,9315
2021-01-22,154,9263
2021-01-23,181,7971
2021-01-24,181,7801
2021-01-25,183,9694
2021-01-26,178,9527
2021-01-27,186,9305
2021-01-28,142,9335
2021-01-29,129,9297
2021-01-30,135,7512
2021-01-31,132,7497
2021-02-01,136,9699
2021-02-02,177,9447
2021-02-03,157,9383
2021-02-04,173,9224
2021-02-05,199,9216
2021-02-06,137,7860
2021-02-07,168,8614
2021-02-08,146,7909
2021-02-09,136,5862
2021-02-10,111,5391
2021-02-11,75,4573
2021-02-12,80,4298
2021-02-13,87,4255
2021-02-14,114,3267
2021-02-15,115,6647
2021-02-16,117,6586
2021-02-17,165,7056
2021-02-18,216,8481
2021-02-19,188,8865
2021-02-20,158,8967
2021-02-21,152,7908
2021-02-22,164,9134
2021-02-23,189,9533
2021-02-24,177,9424
2021-02-25,179,9721
2021-02-26,108,9402
2021-02-27,148,8285
2021-02-28,154,8160
2021-03-01,151,10126
2021-03-02,176,9917
2021-03-03,155,9898
2021-03-04,154,9998
2021-03-05,149,9755
2021-03-06,166,8707
2021-03-07,171,8431
2021-03-08,177,8266
2021-03-09,145,7706
2021-03-10,189,8109
2021-03-11,157,8268
2021-03-12,176,7964
2021-03-13,129,6805
2021-03-14,132,6525
2021-03-15,138,7390
2021-03-16,159,8491
2021-03-17,169,7160
2021-03-18,129,7854
2021-03-19,104,7029
2021-03-20,111,6215
2021-03-21,121,5392
2021-03-22,111,7199
2021-03-23,105,6021
2021-03-24,92,6988
2021-03-25,95,8148
2021-03-26,115,7334
2021-03-27,125,5527
2021-03-28,102,5530
2021-03-29,118,6249
2021-03-30,118,7422
2021-03-31,119,5688
2021-04-01,117,7022
2021-04-02,130,5951
2021-04-03,110,4411
2021-04-04,99,5057
2021-04-05,98,5242
2021-04-06,112,7516
2021-04-07,117,7065
2021-04-08,115,7141
2021-04-09,101,6697
2021-04-10,112,5957
2021-04-11,136,5501
2021-04-12,124,5461
2021-04-13,139,6482
2021-04-14,125,6872
2021-04-15,135,6585
2021-04-16,137,9982
2021-04-17,140,8164
2021-04-18,104,8109
2021-04-19,126,9990
2021-04-20,148,9757
2021-04-21,126,9590
2021-04-22,126,9167
2021-04-23,135,9666
2021-04-24,147,7790
2021-04-25,180,9619
2021-04-26,136,9770
2021-04-27,129,9300
2021-04-28,126,9462
2021-04-29,158,9120
2021-04-30,132,8899
2021-05-01,116,6617
2021-05-02,127,6352
2021-05-03,96,6778
2021-05-04,92,7220
2021-05-05,116,7969
2021-05-06,109,9793
2021-05-07,153,9693
2021-05-08,149,9506
2021-05-09,122,8036
2021-05-10,145,9749
2021-05-11,215,9556
2021-05-12,130,9569
2021-05-13,120,9329
2021-05-14,150,9598
2021-05-15,153,8271
2021-05-16,163,7916
2021-05-17,130,9911
2021-05-18,149,9592
2021-05-19,134,9559
2021-05-20,126,9530
2021-05-21,131,9509
2021-05-22,115,8387
2021-05-23,119,8300
2021-05-24,146,10147
2021-05-25,113,9802
2021-05-26,126,9720
2021-05-27,108,9647
2021-05-28,123,9745
2021-05-29,114,8140
2021-05-30,113,7734
2021-05-31,156,10115
2021-06-01,141,9272
2021-06-02,152,10011
2021-06-03,156,9767
2021-06-04,127,9427
2021-06-05,91,6202
2021-06-06,155,8258
2021-06-07,171,9942
2021-06-08,132,9821
2021-06-09,145,9890
2021-06-10,117,9623
2021-06-11,106,9382
2021-06-12,128,7800
2021-06-13,137,7612
2021-06-14,95,7896
2021-06-15,110,10508
2021-06-16,113,10021
2021-06-17,136,10291
2021-06-18,125,9967
2021-06-19,103,8453
2021-06-20,100,8273
2021-06-21,122,10207
2021-06-22,103,9929
2021-06-23,81,9930
2021-06-24,89,9978
2021-06-25,75,9953
2021-06-26,66,8285
2021-06-27,70,8146
2021-06-28,82,10044
2021-06-29,73,9817
2021-06-30,81,9800
2021-07-01,85,9595
2021-07-02,78,9541
2021-07-03,90,8021
2021-07-04,70,7732
2021-07-05,95,9706
2021-07-06,72,9608
2021-07-07,98,9540
2021-07-08,78,9532
2021-07-09,61,9287
2021-07-10,60,7685
2021-07-11,77,7401
2021-07-12,92,9574
2021-07-13,66,9403
2021-07-14,69,9232
2021-07-15,81,9063
2021-07-16,64,9073
2021-07-17,66,7542
2021-07-18,68,485
2021-07-19,66,764
2021-07-20,73,9759
2021-07-21,73,8637
2021-07-22,86,8984
2021-07-23,62,8925
2021-07-24,67,7515
2021-07-25,67,7310
2021-07-26,61,9293
2021-07-27,59,9097
2021-07-28,83,9007
2021-07-29,71,8879
2021-07-30,65,8959
2021-07-31,76,7559
2021-08-01,76,7163
2021-08-02,95,9308
2021-08-03,85,9118
2021-08-04,159,9170
2021-08-05,133,9117
2021-08-06,134,9128
2021-08-07,104,7783
2021-08-08,127,7577
2021-08-09,115,9599
2021-08-10,122,9368
2021-08-11,108,9339
2021-08-12,108,9258
2021-08-13,112,9292
2021-08-14,112,7688
2021-08-15,117,7564
2021-08-16,122,9580
2021-08-17,88,9334
2021-08-18,96,9434
2021-08-19,107,9217
2021-08-20,93,9160
2021-08-21,80,7773
2021-08-22,91,7688
2021-08-23,111,9563
2021-08-24,113,9337
2021-08-25,87,9433
2021-08-26,90,9255
2021-08-27,89,9236
2021-08-28,110,7911
2021-08-29,93,7736
2021-08-30,86,9567
2021-08-31,108,9450
2021-09-01,79,9288
2021-09-02,107,9377
2021-09-03,86,9219
2021-09-04,92,7792
2021-09-05,102,7638
2021-09-06,95,9422
2021-09-07,88,8563
2021-09-08,124,9353
2021-09-09,101,9103
2021-09-10,76,9218
2021-09-11,68,7709
2021-09-12,80,7553
2021-09-13,102,9543
2021-09-14,99,9304
2021-09-15,102,9316
2021-09-16,79,9305
2021-09-17,98,9060
2021-09-18,109,8856
2021-09-19,92,7102
2021-09-20,74,6999
2021-09-21,75,7139
2021-09-22,156,9588
2021-09-23,143,9499
2021-09-24,113,9442
2021-09-25,101,8002
2021-09-26,100,9365
2021-09-27,89,9225
2021-09-28,85,9158
2021-09-29,104,9065
2021-09-30,101,8706
2021-10-01,87,6375
2021-10-02,76,6199
2021-10-03,103,6283
2021-10-04,73,6544
2021-10-05,91,6853
2021-10-06,106,7202
2021-10-07,96,7616
2021-10-08,119,9396
2021-10-09,124,9190
2021-10-10,126,7675
2021-10-11,117,9361
2021-10-12,115,9282
2021-10-13,99,9526
2021-10-14,113,9430
2021-10-15,99,9385
2021-10-16,113,7974
2021-10-17,119,7703
2021-10-18,116,9582
2021-10-19,130,9423
2021-10-20,159,9289
2021-10-21,146,9312
2021-10-22,85,9292
2021-10-23,9,7930
2021-10-24,40,7698
2021-10-25,80,9785
2021-10-26,77,9526
2021-10-27,65,9526
2021-10-28,72,9405
2021-10-29,72,9518
2021-10-30,71,8108
2021-10-31,158,7924
2021-11-01,297,9895
2021-11-02,289,9948
2021-11-03,285,9958
2021-11-04,241,10034
2021-11-05,249,10107
2021-11-06,251,8737
2021-11-07,146,8190
2021-11-08,126,10295
2021-11-09,137,10182
2021-11-10,276,10301
2021-11-11,212,10255
2021-11-12,103,10136
2021-11-13,88,8519
2021-11-14,85,8255
2021-11-15,107,10431
2021-11-16,80,10310
2021-11-17,98,10271
2021-11-18,96,10335
2021-11-19,77,10181
2021-11-20,81,8629
2021-11-21,87,8231
2021-11-22,73,10090
2021-11-23,66,10302
2021-11-24,83,10039
2021-11-25,131,10216
2021-11-26,139,10178
2021-11-27,83,8329
2021-11-28,58,8326
2021-11-29,70,10606
2021-11-30,79,10397
2021-12-01,90,10339
2021-12-02,86,10224
2021-12-03,139,10105
2021-12-04,127,8616
2021-12-05,137,8401
2021-12-06,176,10753
2021-12-07,174,10470
2021-12-08,166,10556
2021-12-09,201,10583
2021-12-10,195,10421
2021-12-11,293,8965
2021-12-12,253,8752
2021-12-13,173,11040
2021-12-14,135,10938
2021-12-15,98,10865
2021-12-16,85,10713
2021-12-17,61,10778
2021-12-18,76,8987
2021-12-19,67,8617
2021-12-20,92,11070
2021-12-21,91,10641
2021-12-22,68,10770
2021-12-23,66,10782
2021-12-24,61,10541
2021-12-25,64,8801
2021-12-26,70,8647
2021-12-27,73,11017
2021-12-28,56,10779
2021-12-29,68,10724
2021-12-30,70,10620
2021-12-31,57,10101
2022-01-01,59,7684
2022-01-02,53,7935
2022-01-03,48,8716
2022-01-04,51,10855
2022-01-05,55,10601
2022-01-06,48,10600
2022-01-07,67,10702
2022-01-08,110,8974
2022-01-09,161,662
2022-01-10,185,0
2022-01-11,163,11175
2022-01-12,149,10617
2022-01-13,142,10859
2022-01-14,153,10788
2022-01-15,142,9277
2022-01-16,128,8914
2022-01-17,154,11117
2022-01-18,163,11156
2022-01-19,132,11045
2022-01-20,145,11005
2022-01-21,155,10892
2022-01-22,143,9401
2022-01-23,161,9203
2022-01-24,227,10971
2022-01-25,153,10652
2022-01-26,136,10360
2022-01-27,141,10031
2022-01-28,142,9446
2022-01-29,127,8451
2022-01-30,106,7499
2022-01-31,91,6428
2022-02-01,106,6393
2022-02-02,110,6619
2022-02-03,107,6714
2022-02-04,99,6979
2022-02-05,101,7157
2022-02-06,133,7846
2022-02-07,259,9879
2022-02-08,139,10407
2022-02-09,162,10937
2022-02-10,162,11163
2022-02-11,147,11273
2022-02-12,129,9676
2022-02-13,123,9296
2022-02-14,172,11359
2022-02-15,140,11321
2022-02-16,170,11566
2022-02-17,150,11598
2022-02-18,147,11630
2022-02-19,163,9757
2022-02-20,108,9502
2022-02-21,143,12103
2022-02-22,149,11958
2022-02-23,132,12017
2022-02-24,137,11913
2022-02-25,193,11862
2022-02-26,224,10184
2022-02-27,173,9779
2022-02-28,186,12435
2022-03-01,167,12311
2022-03-02,202,12295
2022-03-03,185,12403
2022-03-04,230,12248
2022-03-05,197,10477
2022-03-06,207,10124
2022-03-07,195,12720
2022-03-08,224,12564
2022-03-09,188,12967
2022-03-10,179,12699
2022-03-11,179,12657
2022-03-12,146,10963
2022-03-13,148,10633
2022-03-14,168,12831
2022-03-15,151,12845
2022-03-16,171,13036
2022-03-17,168,12934
2022-03-18,152,13124
2022-03-19,153,11397
2022-03-20,134,11164
2022-03-21,141,13269
2022-03-22,93,13356
2022-03-23,100,13557
2022-03-24,83,13391
2022-03-25,80,13492
2022-03-26,89,11467
2022-03-27,74,11015
2022-03-28,75,13308
2022-03-29,90,13127
2022-03-30,68,13197
2022-03-31,55,13604
2022-04-01,57,13000
2022-04-02,72,12684
2022-04-03,61,10682
2022-04-04,62,10664
2022-04-05,64,10899
2022-04-06,68,13259
2022-04-07,70,13243
2022-04-08,50,13147
2022-04-09,60,11581
2022-04-10,64,11051
2022-04-11,70,13147
2022-04-12,79,13171
2022-04-13,64,13530
2022-04-14,68,13052
2022-04-15,79,13207
2022-04-16,76,11298
2022-04-17,66,10863
2022-04-18,67,13098
2022-04-19,65,13262
2022-04-20,61,13004
2022-04-21,59,12869
2022-04-22,68,12986
2022-04-23,62,11010
2022-04-24,50,12527
2022-04-25,54,12721
2022-04-26,55,12796
2022-04-27,60,12698
2022-04-28,65,12745
2022-04-29,40,12645
2022-04-30,38,10333
2022-05-01,48,9999
2022-05-02,41,10064
2022-05-03,42,10376
2022-05-04,56,10902
2022-05-05,73,12568
2022-05-06,64,12569
2022-05-07,46,12533
2022-05-08,53,10696
2022-05-09,47,12745
2022-05-10,63,12601
2022-05-11,61,13085
2022-05-12,51,12801
2022-05-13,60,12973
2022-05-14,55,11089
2022-05-15,46,10531
2022-05-16,71,12639
2022-05-17,59,12602
2022-05-18,58,12586
2022-05-19,68,12547
2022-05-20,50,12462
2022-05-21,53,10770
2022-05-22,51,10525
2022-05-23,59,12673
2022-05-24,64,12431
2022-05-25,42,11710
2022-05-26,64,12652
2022-05-27,84,12551
2022-05-28,68,10655
2022-05-29,70,10371
2022-05-30,80,12644
2022-05-31,105,12306
2022-06-01,92,12181
2022-06-02,72,12154
2022-06-03,56,9545
2022-06-04,55,9717
2022-06-05,64,10353
2022-06-06,64,12835
2022-06-07,74,12739
2022-06-08,60,12557
2022-06-09,67,12495
2022-06-10,73,12636
2022-06-11,65,10626
2022-06-12,74,10425
2022-06-13,66,12596
2022-06-14,64,12555
2022-06-15,93,12090
2022-06-16,70,12397
2022-06-17,98,12489
2022-06-18,107,10536
2022-06-19,69,10110
2022-06-20,84,12736
2022-06-21,52,12541
2022-06-22,53,12487
2022-06-23,43,12366
2022-06-24,57,12425
2022-06-25,27,10407
2022-06-26,48,10231
2022-06-27,60,12521
2022-06-28,44,12415
2022-06-29,42,12336
2022-06-30,40,12073
2022-07-01,51,12121
2022-07-02,64,10199
2022-07-03,56,9862
2022-07-04,47,12358
2022-07-05,57,12010
2022-07-06,65,12078
2022-07-07,51,12012
2022-07-08,58,11701
2022-07-09,44,9888
2022-07-10,44,9624
2022-07-11,47,12073
2022-07-12,31,11969
2022-07-13,45,11914
2022-07-14,36,11852
2022-07-15,48,11852
2022-07-16,53,9945
2022-07-17,34,9569
2022-07-18,43,11938
2022-07-19,39,11775
2022-07-20,50,11928
2022-07-21,42,11919
2022-07-22,48,11702
2022-07-23,37,9877
2022-07-24,33,6515
2022-07-25,48,12190
2022-07-26,54,11690
2022-07-27,55,11746
2022-07-28,67,11584
2022-07-29,30,11580
2022-07-30,43,9509
2022-07-31,51,9499
2022-08-01,49,11624
2022-08-02,43,11825
2022-08-03,56,11512
2022-08-04,28,11339
2022-08-05,45,11393
2022-08-06,47,9668
2022-08-07,40,9331
2022-08-08,62,11586
2022-08-09,51,11486
2022-08-10,44,11575
2022-08-11,41,11515
2022-08-12,31,11354
2022-08-13,27,9583
2022-08-14,35,9256
2022-08-15,40,11491
2022-08-16,57,11345
2022-08-17,57,11461
2022-08-18,49,11408
2022-08-19,45,11220
2022-08-20,49,9508
2022-08-21,39,9287
2022-08-22,46,11840
2022-08-23,51,11464
2022-08-24,58,11569
2022-08-25,48,11385
2022-08-26,48,11516
2022-08-27,38,9799
2022-08-28,47,9581
2022-08-29,77,11884
2022-08-30,58,11676
2022-08-31,60,11725
2022-09-01,52,11776
2022-09-02,41,11715
2022-09-03,63,10020
2022-09-04,37,9747
2022-09-05,50,12025
2022-09-06,52,11701
2022-09-07,61,11824
2022-09-08,60,11621
2022-09-09,48,11457
2022-09-10,35,8493
2022-09-11,40,8964
2022-09-12,56,9805
2022-09-13,63,11992
2022-09-14,44,11947
2022-09-15,45,11926
2022-09-16,35,11862
2022-09-17,55,10106
2022-09-18,40,9680
2022-09-19,51,11986
2022-09-20,47,11880
2022-09-21,59,11811
2022-09-22,49,11722
2022-09-23,34,11682
2022-09-24,36,9871
2022-09-25,46,9617
2022-09-26,39,11911
2022-09-27,38,11587
2022-09-28,28,11507
2022-09-29,36,11343
2022-09-30,53,11035
2022-10-01,35,8276
2022-10-02,47,8141
2022-10-03,49,8252
2022-10-04,53,8517
2022-10-05,52,8912
2022-10-06,44,9373
2022-10-07,28,9696
2022-10-08,46,11543
2022-10-09,47,11355
2022-10-10,60,11726
2022-10-11,52,11621
2022-10-12,57,11613
2022-10-13,59,11688
2022-10-14,52,11688
2022-10-15,44,9861
2022-10-16,46,9782
2022-10-17,45,11793
2022-10-18,46,11693
2022-10-19,52,11762
2022-10-20,63,11776
2022-10-21,62,11735
2022-10-22,61,10136
2022-10-23,44,9634
2022-10-24,88,12248
2022-10-25,66,11838
2022-10-26,66,11663
2022-10-27,72,11713
2022-10-28,83,11647
2022-10-29,61,10131
2022-10-30,65,9714
2022-10-31,124,12098
2022-11-01,102,11686
2022-11-02,95,11991
2022-11-03,85,12092
2022-11-04,66,11774
2022-11-05,66,9980
2022-11-06,62,9723
2022-11-07,73,12010
2022-11-08,64,11804
2022-11-09,88,11788
2022-11-10,153,11825
2022-11-11,109,11943
2022-11-12,58,10126
2022-11-13,67,9723
2022-11-14,64,12133
2022-11-15,71,11890
2022-11-16,53,11877
2022-11-17,46,11368
2022-11-18,42,11357
2022-11-19,46,9555
2022-11-20,46,9654
2022-11-21,37,11651
2022-11-22,45,12248
2022-11-23,34,12136
2022-11-24,45,12403
2022-11-25,43,11776
2022-11-26,38,10143
2022-11-27,39,9705
2022-11-28,46,11986
2022-11-29,48,11917
2022-11-30,39,11613
2022-12-01,46,11533
2022-12-02,56,11623
2022-12-03,42,9833
2022-12-04,37,9663
2022-12-05,41,11232
2022-12-06,40,11768
2022-12-07,52,11703
2022-12-08,46,11727
2022-12-09,63,11509
2022-12-10,52,9545
2022-12-11,48,8952
2022-12-12,52,11401
2022-12-13,52,10682
2022-12-14,33,10051
2022-12-15,41,11007
2022-12-16,38,10143
2022-12-17,34,8241
2022-12-18,32,8508
2022-12-19,23,10441
2022-12-20,30,9722
2022-12-21,24,8934
2022-12-22,33,9774
2022-12-23,28,9656
2022-12-24,22,7858
2022-12-25,36,8780
2022-12-26,36,10180
2022-12-27,39,10526
2022-12-28,32,10432
2022-12-29,41,10386
2022-12-30,26,10507
2022-12-31,31,8096
2023-01-01,34,7947
2023-01-02,33,8991
2023-01-03,38,11199
2023-01-04,42,11090
2023-01-05,61,11060
2023-01-06,44,10986
2023-01-07,38,9356
2023-01-08,29,8922
2023-01-09,43,11212
2023-01-10,35,10923
2023-01-11,29,10715
2023-01-12,38,10682
2023-01-13,37,10406
2023-01-14,31,8946
2023-01-15,28,8435
2023-01-16,30,9946
2023-01-17,29,9323
2023-01-18,21,8742
2023-01-19,18,7936
2023-01-20,19,7003
2023-01-21,24,6079
2023-01-22,23,5818
2023-01-23,27,5901
2023-01-24,22,5902
2023-01-25,27,6165
2023-01-26,25,6568
2023-01-27,36,7151
2023-01-28,55,8915
2023-01-29,47,9486
2023-01-30,44,10149
2023-01-31,46,10312
2023-02-01,38,10597
2023-02-02,35,10628
2023-02-03,38,10645
2023-02-04,49,9100
2023-02-05,40,8431
2023-02-06,41,11096
2023-02-07,40,10883
2023-02-08,48,10985
2023-02-09,48,10923
2023-02-10,34,10950
2023-02-11,41,9113
2023-02-12,30,9065
2023-02-13,58,11312
2023-02-14,38,10780
2023-02-15,42,10959
2023-02-16,45,10987
2023-02-17,44,10818
2023-02-18,30,9045
2023-02-19,20,8911
2023-02-20,43,11365
2023-02-21,48,11179
2023-02-22,38,11112
2023-02-23,45,11015
2023-02-24,43,10855
2023-02-25,35,8945
2023-02-26,27,8821
2023-02-27,34,11270
2023-02-28,48,10999
2023-03-01,50,11028
2023-03-02,30,10918
2023-03-03,47,10832
2023-03-04,53,8890
2023-03-05,44,8800
2023-03-06,39,11181
2023-03-07,43,10779
2023-03-08,54,10855
2023-03-09,40,10909
2023-03-10,50,10703
2023-03-11,33,8981
2023-03-12,30,8854
2023-03-13,44,11258
2023-03-14,44,10952
2023-03-15,49,10906
2023-03-16,64,10765
2023-03-17,39,10547
2023-03-18,38,8668
2023-03-19,11,8411
2023-03-20,21,11210
2023-03-21,37,10871
2023-03-22,34,10890
2023-03-23,41,10863
2023-03-24,38,10601
2023-03-25,31,8993
2023-03-26,27,8574
2023-03-27,35,11029
2023-03-28,28,10702
2023-03-29,23,10183
2023-03-30,27,10673
2023-03-31,43,10630
2023-04-01,36,8655
2023-04-02,31,8514
2023-04-03,29,10874
2023-04-04,33,10698
2023-04-05,28,8907
2023-04-06,35,10790
2023-04-07,23,10566
2023-04-08,28,8625
2023-04-09,31,8525
2023-04-10,38,10951
2023-04-11,21,10731
2023-04-12,25,10674
2023-04-13,31,10668
2023-04-14,24,10438
2023-04-15,26,8645
2023-04-16,32,8538
2023-04-17,40,10803
2023-04-18,25,10484
2023-04-19,23,10658
2023-04-20,20,10452
2023-04-21,16,10391
2023-04-22,23,8712
2023-04-23,14,10281
2023-04-24,31,10475
2023-04-25,21,10381
2023-04-26,15,10277
2023-04-27,21,10148
2023-04-28,13,9722
2023-04-29,24,7374
2023-04-30,18,6882
2023-05-01,26,6704
2023-05-02,12,7254
2023-05-03,13,8067
2023-05-04,24,10634
2023-05-05,28,10386
2023-05-06,38,10243
2023-05-07,24,8588
2023-05-08,28,10629
2023-05-09,24,10312
2023-05-10,24,10393
2023-05-11,15,10274
2023-05-12,14,10148
2023-05-13,18,8499
2023-05-14,15,8280
2023-05-15,8,10368
2023-05-16,20,10184
2023-05-17,29,10170
2023-05-18,18,10224
2023-05-19,14,10106
2023-05-20,10,8367
2023-05-21,16,8211
2023-05-22,12,10481
2023-05-23,24,10202
2023-05-24,29,10161
2023-05-25,28,10178
2023-05-26,22,10141
2023-05-27,23,8323
2023-05-28,31,8273
2023-05-29,31,10260
2023-05-30,26,10131
2023-05-31,42,10215
2023-06-01,36,10072
2023-06-02,24,9933
2023-06-03,29,8274
2023-06-04,29,8213
2023-06-05,18,10269
2023-06-06,19,9955
2023-06-07,29,10023
2023-06-08,24,9853
2023-06-09,23,9792
2023-06-10,20,8112
2023-06-11,21,7953
2023-06-12,16,10214
2023-06-13,14,9972
2023-06-14,16,9976
2023-06-15,25,9792
2023-06-16,25,9584
2023-06-17,23,8061
2023-06-18,28,7935
2023-06-19,26,9933
2023-06-20,17,9668
2023-06-21,13,9340